Regional Weather Roundup
Issued by NWS

Home | Current Version | Previous Version | Text Only | Print | Product List | Glossary Off
Versions: 1 2 3 4 5 6 7 8 9 10 11 12 13 14 15 16 17 18 19 20 21 22 23 24 25 26 27 28 29 30 31 32 33 34 35 36 37 38 39 40 41 42 43 44 45 46 47 48 49 50

000
ASUS45 KSLC 011410
RWRUT

UTAH REGIONAL WEATHER ROUNDUP
NATIONAL WEATHER SERVICE SALT LAKE CITY UT
800 AM MDT FRI AUG 01 2014

UTZ001>011-023>025-011500-

NORTHERN UTAH

CITY           SKY/WX    TMP DP  RH WIND       PRES   REMARKS
HILL AFB       SUNNY     65  50  58 E15       30.20R
LOGAN          SUNNY     60  52  74 CALM      30.20R
OGDEN          SUNNY     67  50  54 S8        30.17R
PROVO AIRPORT  MOSUNNY   64  54  68 CALM      30.21R
SALT LAKE CITY MOSUNNY   69  52  54 SE7       30.16R
VERNAL         SUNNY     65  45  48 CALM      30.22R
WENDOVER       SUNNY     66  45  45 E5        30.17S
HEBER CITY     MOSUNNY   55  54  94 CALM      30.27R
WEST JORDAN    SUNNY     72  57  60 CALM      30.20R

$$

UTZ012>022-026-027-011500-

SOUTHERN UTAH

CITY           SKY/WX    TMP DP  RH WIND       PRES   REMARKS
BRYCE CANYON   SUNNY     52  48  86 W7        30.38S
CEDAR CITY     SUNNY     60  53  77 NE3       30.24R
MILFORD        SUNNY     59  53  80 S3        30.21R
MOAB/CYNLANDS  PTSUNNY   67  62  84 CALM      30.15S
PRICE          MOSUNNY   67  50  54 CALM      30.24S
ST GEORGE      MOSUNNY   77  52  41 NE5       30.08S

$$

REGIONAL REPORTS     COLORADO/ARIZONA

CITY           SKY/WX    TMP DP  RH WIND       PRES   REMARKS
CRAIG, CO      CLOUDY    54  48  80 E6        30.28R
GRAND JUNCTION PTSUNNY   68  55  63 CALM      30.20R
RIFLE          PTSUNNY   65  52  62 CALM      30.24R
MONTROSE       PTSUNNY   65  55  70 SW3       30.28R
CORTEZ         CLOUDY    62  54  74 NE5       30.28R
PAGE, AZ       SUNNY     75  51  43 N5        30.15R
GRAND CANYON   PTSUNNY   60  53  77 CALM      30.32R
KINGMAN        PTSUNNY   78  51  38 SE12      30.08R
FLAGSTAFF      CLOUDY    56  52  86 CALM      30.36R

$$

REGIONAL REPORTS    NEVADA/IDAHO/WYOMING

CITY           SKY/WX    TMP DP  RH WIND       PRES   REMARKS
LAS VEGAS, NV  MOSUNNY   89  52  28 CALM      29.92R
ELY            SUNNY     52  43  71 S9        30.31S
ELKO           SUNNY     57  50  77 NE6       30.25R
POCATELLO, ID  SUNNY     62  49  62 CALM      30.20R
BURLEY         MOSUNNY   60  49  66 SE6       30.17R
EVANSTON, WY   PTSUNNY   57  42  57 E5        30.35R
ROCK SPRINGS   SUNNY     59  39  47 E3        30.34R

$$


USA.gov is the U.S. government's official web portal to all federal, state and local government web resources and services.